Location: Las Vegas
(36.1750°N, 115.1360°W)
Time: 15:19:27
(UTC-08:00)

Amateur Radio Satellites - All Passes

Search period start: 06 February 2016 14:49
Search period end: 07 February 2016 14:49
Location: Las Vegas, 36.1750°N, 115.1360°W

Satellite Date Start Highest point End Downlink Frequencies (MHz)
Time Altitude Azimuth
STARS 06 Feb 14:53:56 14:57:39 27° 97° (E) 15:01:21 437.465
Cosmos 2491 06 Feb 14:59:01 15:07:41 74° 93° (E) 15:16:21 435.465 / 435.565
YUBILEINY 06 Feb 14:59:19 15:08:03 67° 268° (W) 15:16:44 435.215
KKS-1 06 Feb 15:00:19 15:04:43 64° 101° (ESE) 15:09:05 437.445
RS-15 06 Feb 15:04:24 15:12:00 19° 337° (NNW) 15:19:52 29.354- 29.394
Cosmos 2504 06 Feb 15:07:00 15:14:26 31° 72° (ENE) 15:21:26 435.465 / 435.565
SRMSAT 06 Feb 15:10:15 15:12:37 12° 191° (S) 15:15:00 437.500
ITAMSAT 1 06 Feb 15:11:52 15:13:20 11° 269° (W) 15:14:49 435.822/435.867
HORYU 2 06 Feb 15:22:36 15:27:01 89° 78° (ENE) 15:31:27 437.375
M-CUBED/EXP-1 PRIME 06 Feb 15:23:35 15:26:57 28° 256° (WSW) 15:30:07 437.505
ITUPSAT 1 06 Feb 15:25:19 15:26:46 11° 297° (WNW) 15:28:13 437.325
AUBIESAT-1 06 Feb 15:37:04 15:40:10 24° 257° (WSW) 15:43:08 437.475
ISS 06 Feb 15:50:06 15:53:09 38° 134° (SE) 15:56:11 145.825
MOZHAYETS 4 06 Feb 16:02:56 16:07:33 69° 285° (WNW) 16:12:09
AO-7 06 Feb 16:15:39 16:21:49 23° 265° (W) 16:28:03 29.400- 29.500
CUTE-I 06 Feb 16:19:02 16:23:20 26° 67° (ENE) 16:27:40 437.470
STARS 06 Feb 16:30:27 16:33:52 23° 291° (WNW) 16:37:17 437.465
Cubesat XI-IV 06 Feb 16:31:04 16:35:47 33° 69° (ENE) 16:40:31 437.490
CUBESAT XI-V 06 Feb 16:34:01 16:37:46 23° 95° (E) 16:41:29 437.345
KKS-1 06 Feb 16:39:37 16:40:43 11° 296° (WNW) 16:41:47 437.445
BRITE-PL 06 Feb 16:44:58 16:49:30 25° 68° (ENE) 16:54:00 437.365/2234.400
Cosmos 2491 06 Feb 16:59:07 17:05:18 21° 292° (WNW) 17:11:33 435.465 / 435.565
Cosmos 2504 06 Feb 16:59:50 17:08:06 51° 271° (W) 17:15:49 435.465 / 435.565
LilacSat-2 06 Feb 17:15:25 17:19:14 78° 78° (ENE) 17:23:04 437.200
O/OREOS (USA 219) 06 Feb 17:23:49 17:27:31 24° 62° (ENE) 17:31:12 437.305
RS-15 06 Feb 17:24:36 17:31:29 16° 15° (NNE) 17:38:28 29.354- 29.394
ISS 06 Feb 17:27:09 17:29:42 21° 329° (NNW) 17:32:14 145.825
BEESAT 3 06 Feb 17:33:33 17:37:31 78° 301° (WNW) 17:41:31 437.485
BEESAT 2 06 Feb 17:51:07 17:55:08 79° 300° (WNW) 17:59:10 435.950
CUTE-I 06 Feb 17:58:21 18:03:10 35° 262° (W) 18:08:03 437.470
GOMX 1 06 Feb 18:08:38 18:14:07 80° 76° (ENE) 18:19:27 467.674
DOVE 4 06 Feb 18:08:47 18:13:39 41° 73° (ENE) 18:18:19 437.250
CUBESAT XI-V 06 Feb 18:11:01 18:15:07 30° 290° (WNW) 18:19:12 437.345
Cubesat XI-IV 06 Feb 18:11:23 18:15:50 27° 264° (W) 18:20:18 437.490
CANX-2 06 Feb 18:21:17 18:24:27 21° 69° (ENE) 18:27:39 2200.000
BRITE-PL 06 Feb 18:22:19 18:27:39 42° 263° (W) 18:33:01 437.365/2234.400
GONETS M04 06 Feb 18:28:43 18:34:28 19° 66° (ENE) 18:40:12
HO-68 06 Feb 18:30:35 18:37:18 45° 67° (ENE) 18:44:03 435.675
PCSat 06 Feb 18:50:48 18:52:33 11° 44° (NE) 18:54:18 145.827
STRAND 1 06 Feb 19:00:39 19:05:50 85° 281° (W) 19:10:59 437.568
O/OREOS (USA 219) 06 Feb 19:02:55 19:06:53 29° 257° (WSW) 19:10:50 437.305
CUTE 1.7 + AOD 2 06 Feb 19:11:24 19:15:34 75° 76° (ENE) 19:19:47 437.475
COMPASS 1 06 Feb 19:16:42 19:20:38 44° 74° (ENE) 19:24:36 437.405
AIST 2 06 Feb 19:18:03 19:22:13 87° 120° (ESE) 19:26:25 435.215
SEEDS 06 Feb 19:24:09 19:28:18 79° 77° (ENE) 19:32:30 437.485
CINEMA 3 06 Feb 19:29:46 19:34:32 81° 258° (WSW) 19:39:07 145.822/145.860
AO-85 06 Feb 19:29:52 19:34:48 46° 55° (NE) 19:39:19 145.980
ZACube-1 06 Feb 19:36:52 19:39:53 19° 69° (ENE) 19:42:53 437.345
RS-15 06 Feb 19:37:21 19:48:41 42° 47° (NE) 20:00:06 29.354- 29.394
PRISM 06 Feb 19:44:35 19:48:48 83° 281° (W) 19:52:57 437.425
FUNcube-1 06 Feb 19:47:23 19:50:47 24° 70° (ENE) 19:54:10 145.935
DOVE 4 06 Feb 19:47:36 19:51:24 20° 266° (W) 19:55:07 437.250
AAUSAT CUBESAT 2 06 Feb 19:48:38 19:52:44 89° 240° (WSW) 19:56:55 437.432
GOMX 1 06 Feb 19:51:03 19:52:36 11° 270° (W) 19:54:09 467.674
CANX-2 06 Feb 19:56:36 20:00:09 27° 264° (W) 20:03:44 2200.000
DELFI C3 06 Feb 19:56:39 19:59:39 21° 70° (ENE) 20:02:40 145.870
CUBEBUG 2 06 Feb 20:01:03 20:05:28 79° 75° (ENE) 20:09:45 437.445
UWE-3 06 Feb 20:09:27 20:13:45 69° 76° (ENE) 20:17:59 435.000/436.395/437.385
Cosmos 2499 06 Feb 20:18:26 20:26:19 41° 75° (ENE) 20:33:36 435.465 / 435.565
HO-68 06 Feb 20:18:55 20:25:05 31° 263° (W) 20:31:18 435.675
GONETS M04 06 Feb 20:23:28 20:32:17 83° 265° (W) 20:41:07
Oscar 11 06 Feb 20:24:42 20:28:59 86° 258° (WSW) 20:33:19 145.826/435.025
HUMSAT D 06 Feb 20:26:08 20:29:03 19° 69° (ENE) 20:31:59 437.325/437.525
PCSat 06 Feb 20:31:24 20:36:51 77° 62° (ENE) 20:42:15 145.827
COMPASS 1 06 Feb 20:54:48 20:56:26 12° 268° (W) 20:58:03 437.405
UNISAT 6 06 Feb 21:09:53 21:12:41 17° 94° (E) 21:15:31 437.425
AO-85 06 Feb 21:11:30 21:14:50 18° 253° (WSW) 21:17:57 145.980
ZACube-1 06 Feb 21:12:13 21:15:59 30° 263° (W) 21:19:41 437.345
VELOX 1 06 Feb 21:14:34 21:16:58 14° 65° (ENE) 21:19:21 145.980
FUNcube-1 06 Feb 21:23:31 21:26:57 23° 264° (W) 21:30:20 145.935
AISAT 06 Feb 21:29:23 21:32:50 22° 68° (ENE) 21:36:17 437.250
AIST 1 06 Feb 21:29:52 21:34:06 48° 80° (E) 21:38:15
DELFI C3 06 Feb 21:31:12 21:34:25 24° 264° (W) 21:37:40 145.870
ESTCUBE 1 06 Feb 21:36:55 21:40:46 28° 70° (ENE) 21:44:38 437.505/2401.250
RS-15 06 Feb 21:49:47 22:01:41 61° 248° (WSW) 22:13:39 29.354- 29.394
ANTELSAT 06 Feb 21:53:48 21:58:03 55° 100° (E) 22:02:22 437.575/2403.000
CUBEBUG 1 06 Feb 21:58:31 22:02:33 35° 72° (ENE) 22:06:36 437.445
UKube-1 06 Feb 22:00:42 22:04:48 43° 73° (ENE) 22:08:55 .
HUMSAT D 06 Feb 22:00:59 22:04:30 28° 263° (W) 22:08:03 437.325/437.525
TIGRISAT 06 Feb 22:01:52 22:06:10 65° 101° (ESE) 22:10:31 435.000
POLYITAN 1 06 Feb 22:04:19 22:06:48 15° 93° (E) 22:09:18 437.675
QB50P2 06 Feb 22:05:02 22:07:41 16° 94° (E) 22:10:19 145.880/145.840
DX 1 06 Feb 22:06:18 22:10:37 60° 74° (ENE) 22:14:56 434.975-435.025
Cosmos 2499 06 Feb 22:11:48 22:19:14 37° 274° (W) 22:26:11 435.465 / 435.565
SPROUT 06 Feb 22:17:05 22:20:09 19° 68° (ENE) 22:23:12 437.525
PCSat 06 Feb 22:17:41 22:19:30 12° 258° (WSW) 22:21:19 145.827
ISS 06 Feb 22:20:20 22:22:43 19° 30° (NNE) 22:25:07 145.825
GONETS M04 06 Feb 22:23:58 22:27:38 13° 283° (WNW) 22:31:20
50 SAT 06 Feb 22:23:58 22:27:38 68° 259° (W) 22:31:20 437.505
BUGSAT 1 06 Feb 22:27:28 22:29:04 12° 93° (E) 22:30:39 437.445
POPSAT HIP 1 06 Feb 22:34:42 22:38:33 34° 98° (E) 22:42:21 437.405
TISAT 1 06 Feb 22:40:37 22:42:29 13° 66° (ENE) 22:44:20 437.305
NANOSAT C BR1 06 Feb 22:41:30 22:45:28 41° 99° (E) 22:49:25 145.865
DUCHIFAT 1 06 Feb 22:44:28 22:48:27 42° 99° (E) 22:52:23 145.980
UNISAT 6 06 Feb 22:45:33 22:49:29 36° 288° (WNW) 22:53:30 437.425
QB50P1 06 Feb 22:47:29 22:51:35 50° 100° (E) 22:55:39 145.935-145.965
VELOX 1 06 Feb 22:48:42 22:53:00 48° 260° (W) 22:57:20 145.980
AISAT 06 Feb 23:05:13 23:09:08 30° 263° (W) 23:13:04 437.250
AIST 1 06 Feb 23:09:49 23:11:10 11° 275° (W) 23:12:29
ESTCUBE 1 06 Feb 23:13:56 23:17:31 23° 265° (W) 23:21:09 437.505/2401.250
ANTELSAT 06 Feb 23:32:44 23:34:18 12° 295° (WNW) 23:35:52 437.575/2403.000
CUBEBUG 1 06 Feb 23:35:55 23:38:55 18° 266° (W) 23:41:56 437.445
UKube-1 06 Feb 23:38:44 23:41:02 14° 267° (W) 23:43:20 .
POLYITAN 1 06 Feb 23:38:52 23:42:44 36° 288° (WNW) 23:46:35 437.675
QB50P2 06 Feb 23:39:45 23:43:34 34° 288° (WNW) 23:47:23 145.880/145.840
SPROUT 06 Feb 23:52:02 23:55:53 31° 263° (W) 23:59:45 437.525
CUSAT 1 06 Feb 23:53:32 23:56:23 12° 78° (ENE) 23:59:18 437.405
ISS 06 Feb 23:56:12 23:59:20 45° 225° (SW) 00:02:27 145.825
BUGSAT 1 07 Feb 00:00:49 00:04:39 41° 287° (WNW) 00:08:26 437.445
POPSAT HIP 1 07 Feb 00:11:21 00:14:03 17° 292° (WNW) 00:16:44 437.405
TISAT 1 07 Feb 00:13:36 00:17:42 48° 260° (W) 00:21:49 437.305
SWISSCUBE 07 Feb 00:14:24 00:18:30 29° 70° (ENE) 00:22:36 437.505
NANOSAT C BR1 07 Feb 00:18:34 00:20:50 14° 293° (WNW) 00:23:06 145.865
DUCHIFAT 1 07 Feb 00:21:37 00:23:46 14° 294° (WNW) 00:25:56 145.980
QB50P1 07 Feb 00:25:19 00:26:54 12° 295° (WNW) 00:28:29 145.935-145.965
Oscar 19 07 Feb 00:42:27 00:47:20 43° 99° (E) 00:52:11 437.125/150
Gurwin Techsat 1B 07 Feb 00:47:49 00:51:17 17° 93° (E) 00:54:44 435.225
ITUPSAT 1 07 Feb 00:48:45 00:53:26 61° 74° (ENE) 00:58:09 437.325
PHONESAT 2.4 07 Feb 00:51:26 00:54:12 25° 148° (SSE) 00:56:58 2401.200-2431.200
BEESAT 07 Feb 00:59:23 01:04:08 82° 74° (ENE) 01:08:54 436.000
Cosmos 2491 07 Feb 01:13:15 01:20:49 32° 73° (ENE) 01:28:22 435.465 / 435.565
JAS-2 07 Feb 01:17:40 01:23:19 62° 101° (E) 01:28:31 435.910
CUSAT 1 07 Feb 01:29:40 01:37:14 73° 95° (E) 01:45:24 437.405
DANDE 07 Feb 01:35:59 01:42:49 48° 90° (E) 01:50:44 436.750
ITAMSAT 1 07 Feb 01:44:09 01:48:49 32° 97° (E) 01:53:26 435.822/435.867
STARS 07 Feb 01:48:44 01:51:46 18° 67° (ENE) 01:54:47 437.465
SWISSCUBE 07 Feb 01:52:23 01:56:14 25° 264° (W) 02:00:09 437.505
BEESAT 3 07 Feb 01:54:05 01:57:25 25° 53° (NE) 02:00:42 437.485
KKS-1 07 Feb 01:55:41 01:59:52 41° 72° (ENE) 02:04:04 437.445
YUBILEINY 07 Feb 02:01:38 02:08:49 30° 84° (E) 02:16:02 435.215
BEESAT 2 07 Feb 02:12:22 02:15:45 26° 53° (NE) 02:19:05 435.950
Oscar 19 07 Feb 02:22:39 02:26:19 20° 294° (WNW) 02:29:57 437.125/150
AO-7 07 Feb 02:25:55 02:32:36 26° 96° (E) 02:39:13 29.400- 29.500
Gurwin Techsat 1B 07 Feb 02:26:20 02:31:28 50° 288° (WNW) 02:36:36 435.225
PHONESAT 2.4 07 Feb 02:28:03 02:31:19 67° 342° (NNW) 02:34:35 2401.200-2431.200
ITUPSAT 1 07 Feb 02:29:58 02:31:38 12° 269° (W) 02:33:17 437.325
MOZHAYETS 4 07 Feb 03:01:51 03:06:24 81° 76° (ENE) 03:10:59
JAS-2 07 Feb 03:04:33 03:07:41 15° 300° (WNW) 03:10:41 435.910
M-CUBED/EXP-1 PRIME 07 Feb 03:05:50 03:08:03 16° 101° (ESE) 03:10:19 437.505
Cosmos 2491 07 Feb 03:09:33 03:17:52 51° 271° (W) 03:26:12 435.465 / 435.565
CUSAT 1 07 Feb 03:14:16 03:20:14 23° 293° (WNW) 03:26:26 437.405
HORYU 2 07 Feb 03:17:02 03:20:21 20° 95° (E) 03:23:39 437.375
AUBIESAT-1 07 Feb 03:18:16 03:20:49 19° 102° (ESE) 03:23:28 437.475
DANDE 07 Feb 03:19:23 03:25:59 34° 290° (WNW) 03:33:27 436.750
ITAMSAT 1 07 Feb 03:23:44 03:28:08 28° 292° (WNW) 03:32:31 435.822/435.867
STARS 07 Feb 03:23:48 03:27:51 35° 262° (W) 03:31:54 437.465
BEESAT 3 07 Feb 03:31:55 03:35:03 23° 249° (WSW) 03:38:09 437.485
KKS-1 07 Feb 03:33:56 03:36:36 15° 267° (W) 03:39:15 437.445
CUBESAT XI-V 07 Feb 03:35:25 03:38:30 18° 67° (ENE) 03:41:35 437.345
Cosmos 2504 07 Feb 03:41:48 03:48:32 27° 82° (E) 03:55:31 435.465 / 435.565
AIST 2 07 Feb 03:42:26 03:45:53 25° 52° (NE) 03:49:18 435.215
BEESAT 2 07 Feb 03:50:21 03:53:31 23° 249° (WSW) 03:56:39 435.950
YUBILEINY 07 Feb 03:56:35 04:05:04 53° 282° (WNW) 04:13:40 435.215
PHONESAT 2.4 07 Feb 04:05:49 04:08:53 36° 359° (N) 04:11:56 2401.200-2431.200
AO-7 07 Feb 04:17:36 04:25:46 61° 292° (WNW) 04:33:51 29.400- 29.500
STRAND 1 07 Feb 04:38:50 04:40:25 11° 62° (ENE) 04:42:00 437.568
M-CUBED/EXP-1 PRIME 07 Feb 04:39:58 04:42:40 23° 293° (WNW) 04:45:26 437.505
CUTE-I 07 Feb 04:40:24 04:42:21 12° 91° (E) 04:44:17 437.470
SO-50 07 Feb 04:41:15 04:45:56 49° 115° (ESE) 04:50:42 436.795
Cubesat XI-IV 07 Feb 04:51:55 04:55:13 16° 93° (E) 04:58:30 437.490
AUBIESAT-1 07 Feb 04:52:47 04:55:19 20° 293° (WNW) 04:57:57 437.475
HORYU 2 07 Feb 04:53:00 04:56:55 31° 290° (WNW) 05:00:49 437.375
CUBESAT XI-V 07 Feb 05:11:06 05:15:31 42° 262° (W) 05:19:59 437.345
AIST 2 07 Feb 05:20:53 05:24:18 25° 248° (WSW) 05:27:42 435.215
Cosmos 2504 07 Feb 05:32:58 05:41:13 59° 281° (W) 05:49:57 435.465 / 435.565
PHONESAT 2.4 07 Feb 05:43:12 05:46:27 61° 16° (NNE) 05:49:41 2401.200-2431.200
DOVE 4 07 Feb 06:13:40 06:14:24 10° 91° (E) 06:15:06 437.250
STRAND 1 07 Feb 06:13:47 06:18:52 79° 257° (WSW) 06:24:01 437.568
AO-7 07 Feb 06:14:12 06:16:49 12° 312° (NW) 06:19:27 29.400- 29.500
GOMX 1 07 Feb 06:14:39 06:18:20 25° 95° (E) 06:21:52 467.674
CUTE-I 07 Feb 06:17:29 06:22:51 73° 286° (WNW) 06:28:12 437.470
SO-50 07 Feb 06:23:00 06:26:41 21° 312° (NW) 06:30:25 436.795
LilacSat-2 07 Feb 06:25:51 06:29:29 44° 285° (WNW) 06:33:04 437.200
Cubesat XI-IV 07 Feb 06:30:20 06:35:35 55° 287° (WNW) 06:40:48 437.490
BRITE-PL 07 Feb 06:30:32 06:35:22 88° 96° (E) 06:39:48 437.365/2234.400
PRISM 07 Feb 06:31:22 06:35:20 47° 73° (ENE) 06:39:22 437.425
CUTE 1.7 + AOD 2 07 Feb 07:00:16 07:02:53 16° 93° (E) 07:05:30 437.475
SEEDS 07 Feb 07:11:59 07:14:38 16° 93° (E) 07:17:16 437.485
PHONESAT 2.4 07 Feb 07:20:44 07:23:36 28° 211° (SSW) 07:26:27 2401.200-2431.200
GONETS M04 07 Feb 07:27:12 07:33:29 23° 82° (E) 07:39:46
CINEMA 3 07 Feb 07:27:48 07:31:17 26° 96° (E) 07:34:46 145.822/145.860
O/OREOS (USA 219) 07 Feb 07:32:57 07:37:09 42° 105° (ESE) 07:41:24 437.305
AAUSAT CUBESAT 2 07 Feb 07:34:46 07:37:35 17° 94° (E) 07:40:22 437.432
CANX-2 07 Feb 07:43:27 07:47:41 60° 100° (E) 07:51:55 2200.000
HO-68 07 Feb 07:48:12 07:55:20 61° 102° (ESE) 08:02:24 435.675
DOVE 4 07 Feb 07:48:20 07:52:28 50° 286° (WNW) 07:56:28 437.250
GOMX 1 07 Feb 07:52:48 07:56:20 23° 292° (WNW) 07:59:42 467.674
CUBEBUG 2 07 Feb 07:55:24 07:58:21 18° 95° (E) 08:01:19 437.445
UWE-3 07 Feb 08:02:49 08:05:26 16° 94° (E) 08:08:04 435.000/436.395/437.385
UNISAT 6 07 Feb 08:08:06 08:09:27 11° 65° (ENE) 08:10:46 437.425
PRISM 07 Feb 08:09:27 08:10:55 12° 268° (W) 08:12:23 437.425
Oscar 11 07 Feb 08:15:18 08:18:36 21° 95° (E) 08:21:53 145.826/435.025
CUTE 1.7 + AOD 2 07 Feb 08:34:53 08:38:50 37° 287° (WNW) 08:42:46 437.475
COMPASS 1 07 Feb 08:37:29 08:41:40 63° 284° (WNW) 08:45:50 437.405
SEEDS 07 Feb 08:46:33 08:50:27 36° 287° (WNW) 08:54:20 437.485
ANTELSAT 07 Feb 08:50:17 08:54:13 34° 72° (ENE) 08:58:07 437.575/2403.000
Cosmos 2499 07 Feb 08:50:33 08:58:09 37° 86° (E) 09:06:00 435.465 / 435.565
TIGRISAT 07 Feb 08:58:03 09:02:07 40° 73° (ENE) 09:06:09 435.000
ZACube-1 07 Feb 09:02:24 09:06:33 57° 100° (E) 09:10:46 437.345
CINEMA 3 07 Feb 09:05:11 09:08:17 21° 291° (WNW) 09:11:24 145.822/145.860
AAUSAT CUBESAT 2 07 Feb 09:09:22 09:13:08 32° 288° (WNW) 09:16:53 437.432
DELFI C3 07 Feb 09:11:01 09:14:57 49° 100° (E) 09:18:53 145.870
FUNcube-1 07 Feb 09:13:00 09:17:12 74° 101° (E) 09:21:28 145.935
O/OREOS (USA 219) 07 Feb 09:13:54 09:16:44 16° 301° (WNW) 09:19:36 437.305
GONETS M04 07 Feb 09:20:51 09:29:27 66° 279° (W) 09:38:08
CANX-2 07 Feb 09:22:06 09:23:00 11° 295° (WNW) 09:23:56 2200.000
POPSAT HIP 1 07 Feb 09:25:21 09:28:23 19° 69° (ENE) 09:31:26 437.405
PCSat 07 Feb 09:30:05 09:32:46 14° 103° (ESE) 09:35:27 145.827
CUBEBUG 2 07 Feb 09:31:21 09:34:59 30° 288° (WNW) 09:38:41 437.445
NANOSAT C BR1 07 Feb 09:31:37 09:34:55 22° 69° (ENE) 09:38:13 145.865
DUCHIFAT 1 07 Feb 09:34:20 09:37:39 23° 70° (ENE) 09:40:58 145.980
HO-68 07 Feb 09:36:58 09:42:28 24° 299° (WNW) 09:47:58 435.675
QB50P1 07 Feb 09:37:39 09:41:14 27° 71° (ENE) 09:44:49 145.935-145.965
UWE-3 07 Feb 09:38:10 09:41:59 35° 287° (WNW) 09:45:51 435.000/436.395/437.385
AO-85 07 Feb 09:41:05 09:45:41 31° 111° (ESE) 09:50:27 145.980
UNISAT 6 07 Feb 09:41:22 09:45:40 57° 259° (W) 09:49:54 437.425
HUMSAT D 07 Feb 09:46:20 09:50:24 51° 100° (E) 09:54:30 437.325/437.525
JUGNU 07 Feb 09:49:15 09:52:23 15° 175° (S) 09:55:30 437.505
Oscar 11 07 Feb 09:50:58 09:54:42 29° 289° (WNW) 09:58:27 145.826/435.025
AIST 1 07 Feb 09:56:23 10:00:18 33° 91° (E) 10:04:15
DX 1 07 Feb 09:59:08 10:01:03 13° 93° (E) 10:02:56 434.975-435.025
50 SAT 07 Feb 09:59:39 10:01:34 13° 93° (E) 10:03:29 437.505
RS-15 07 Feb 09:59:48 10:08:35 28° 103° (ESE) 10:17:38 29.354- 29.394
ANTELSAT 07 Feb 10:28:08 10:31:01 17° 266° (W) 10:33:52 437.575/2403.000
POLYITAN 1 07 Feb 10:28:19 10:32:32 72° 257° (WSW) 10:36:47 437.675
QB50P2 07 Feb 10:29:07 10:33:21 68° 259° (W) 10:37:35 145.880/145.840
TIGRISAT 07 Feb 10:36:32 10:38:57 15° 266° (W) 10:41:23 435.000
ZACube-1 07 Feb 10:41:27 10:42:21 11° 295° (WNW) 10:43:16 437.345
VELOX 1 07 Feb 10:41:36 10:45:43 37° 98° (E) 10:49:48 145.980
Cosmos 2499 07 Feb 10:42:53 10:51:01 45° 284° (WNW) 10:59:28 435.465 / 435.565
BUGSAT 1 07 Feb 10:47:14 10:51:29 88° 76° (ENE) 10:55:42 437.445
DELFI C3 07 Feb 10:48:07 10:49:24 11° 294° (WNW) 10:50:41 145.870
AISAT 07 Feb 10:57:33 11:01:56 62° 101° (ESE) 11:06:16 437.250
POPSAT HIP 1 07 Feb 11:00:13 11:03:58 30° 263° (W) 11:07:43 437.405
NANOSAT C BR1 07 Feb 11:06:58 11:10:31 26° 264° (W) 11:14:04 145.865
ESTCUBE 1 07 Feb 11:07:57 11:12:32 89° 104° (ESE) 11:17:03 437.505/2401.250
DUCHIFAT 1 07 Feb 11:09:43 11:13:14 25° 264° (W) 11:16:45 145.980
PCSat 07 Feb 11:10:09 11:15:31 67° 298° (WNW) 11:20:56 145.827
QB50P1 07 Feb 11:13:44 11:16:59 21° 265° (W) 11:20:15 145.935-145.965
SRMSAT 07 Feb 11:20:07 11:22:55 14° 171° (S) 11:25:44 437.500
AO-85 07 Feb 11:21:16 11:26:08 35° 308° (NW) 11:31:09 145.980
HUMSAT D 07 Feb 11:24:08 11:25:35 12° 294° (WNW) 11:27:02 437.325/437.525
CUBEBUG 1 07 Feb 11:25:34 11:29:57 78° 284° (WNW) 11:34:17 437.445
JAS-2 07 Feb 11:25:55 11:32:00 26° 65° (ENE) 11:37:45 435.910
UKube-1 07 Feb 11:26:12 11:30:31 69° 285° (WNW) 11:34:47 .
GONETS M04 07 Feb 11:27:04 11:28:05 10° 300° (WNW) 11:29:06
50 SAT 07 Feb 11:32:15 11:35:41 33° 287° (WNW) 11:39:07 437.505
DX 1 07 Feb 11:33:17 11:37:28 47° 287° (WNW) 11:41:37 434.975-435.025
AIST 1 07 Feb 11:35:00 11:37:58 18° 286° (WNW) 11:40:57
JUGNU 07 Feb 11:37:28 11:40:36 15° 185° (S) 11:43:42 437.505
SPROUT 07 Feb 11:40:23 11:44:32 51° 100° (E) 11:48:40 437.525
Oscar 19 07 Feb 11:56:31 12:01:30 49° 72° (ENE) 12:06:29 437.125/150
TISAT 1 07 Feb 12:00:32 12:04:11 29° 97° (E) 12:07:49 437.305
Gurwin Techsat 1B 07 Feb 12:06:17 12:10:18 22° 66° (ENE) 12:14:19 435.225
RS-15 07 Feb 12:08:46 12:19:49 71° 303° (WNW) 12:31:32 29.354- 29.394
CUSAT 1 07 Feb 12:12:00 12:17:37 38° 72° (ENE) 12:21:56 437.405
YUBILEINY 07 Feb 12:17:34 12:20:03 11° 61° (ENE) 12:22:30 435.215
VELOX 1 07 Feb 12:18:59 12:21:52 17° 293° (WNW) 12:24:46 145.980
DANDE 07 Feb 12:21:35 12:27:48 30° 68° (ENE) 12:32:47 436.750
AISAT 07 Feb 12:36:38 12:37:51 11° 296° (WNW) 12:39:04 437.250
ITUPSAT 1 07 Feb 12:52:51 12:56:18 20° 94° (E) 12:59:46 437.325
ITAMSAT 1 07 Feb 12:59:31 13:04:14 37° 70° (ENE) 13:09:00 435.822/435.867
BEESAT 07 Feb 13:02:45 13:06:43 25° 96° (E) 13:10:40 436.000
SRMSAT 07 Feb 13:07:53 13:11:18 16° 182° (S) 13:14:44 437.500
JAS-2 07 Feb 13:08:50 13:16:32 61° 259° (W) 13:23:45 435.910
SO-50 07 Feb 13:15:53 13:19:43 23° 49° (NE) 13:23:27 436.795
SPROUT 07 Feb 13:18:19 13:20:02 12° 295° (WNW) 13:21:45 437.525
AO-7 07 Feb 13:22:13 13:29:11 31° 60° (ENE) 13:36:08 29.400- 29.500
TISAT 1 07 Feb 13:36:40 13:39:39 19° 292° (WNW) 13:42:38 437.305
Oscar 19 07 Feb 13:37:40 13:41:02 17° 267° (W) 13:44:24 437.125/150
Gurwin Techsat 1B 07 Feb 13:44:58 13:49:56 41° 261° (W) 13:54:57 435.225
M-CUBED/EXP-1 PRIME 07 Feb 13:51:11 13:53:28 16° 65° (ENE) 13:55:39 437.505
SWISSCUBE 07 Feb 13:54:06 13:58:55 80° 283° (WNW) 14:03:43 437.505
CUSAT 1 07 Feb 13:55:14 13:59:17 20° 278° (W) 14:02:42 437.405
AUBIESAT-1 07 Feb 14:03:09 14:05:40 18° 66° (ENE) 14:08:06 437.475
DANDE 07 Feb 14:04:27 14:10:49 37° 273° (W) 14:15:51 436.750
YUBILEINY 07 Feb 14:09:44 14:18:35 69° 81° (E) 14:27:20 435.215
Cosmos 2491 07 Feb 14:11:02 14:18:54 40° 87° (E) 14:26:45 435.465 / 435.565
HORYU 2 07 Feb 14:13:39 14:16:03 14° 65° (ENE) 14:18:26 437.375
RS-15 07 Feb 14:26:26 14:34:54 23° 330° (NNW) 14:43:42 29.354- 29.394
ITUPSAT 1 07 Feb 14:29:48 14:34:14 38° 289° (WNW) 14:38:40 437.325
ITAMSAT 1 07 Feb 14:39:44 14:43:46 23° 265° (W) 14:47:50 435.822/435.867
BEESAT 07 Feb 14:40:19 14:44:26 29° 291° (WNW) 14:48:32 436.000
